THORAD AGENA D DEB, 42499

Orbit data source: Space-Track

THORAD AGENA D DEB, 42499 is space debris in LEO originally from a launch on Wed, 08 Apr 1970 UTC launched from the Air Force Western Test Range (AFWTR). Debris objects in space refer to the collection of defunct objects orbiting the Earth. Examples of debris include non-operational satellites, rocket bodies, and fragments generated from explosions, collisions, or faulty payload assembly.

Loading next visibility...
THORAD AGENA D DEB details
Identifier
42499, 1970-025RD
Orbit
LEO
Last TLE update3 days ago
Origin
Flag of USNASA LeRC (US)
ManufacturerUnknown
MissionSpacecraft
Bus & MotorUnknown
MassUnknown
Launch date (UTC)
1970-04-08 (55 years ago)
Launch vehicleUnknown
Launch site
Air Force Western Test Range (AFWTR)
Object type
Payload
Rocket body
Debris
Shape & HBRUnknown
Radar Cross SectionSmall (<0.1 m²)

Expand to show TLE details & history

TLE from 3 days ago
0 THORAD AGENA D DEB
1 42499U 70025RD  24334.06965212  .00002090  00000-0  21183-2 0  9997
2 42499 100.1260 197.3556 0006491 230.3254 129.7322 13.78347318110378
Epoch: 2024-11-29T01:40Z
Definitive object data (Epoch: 2024-11-29T01:40:17.943Z)
Latitude-0.00006°
Longitude103.83899°
Altitude975.615 km
Speed7.362 km/s
True Right ascension13h 09m 25s
True Declination0° 00' 00"
Sunlit
Object was in daylight at TLE epoch
Visualization TLE readout
Latitude-79.51889°
Longitude-178.87915°
Altitude994.644 km
Speed7.355 km/s
Apparent Right ascension17h 36m 18s
Apparent Declination-61° 11' 17"
Sunlit
Object is in daylight
Visualization observer readout
Local Sidereal Time05:24:46
Azimuth183.819° SSW
Elevation-68.654°
Doppler factor1
Orbital elements
Apogee altitude971.808 km
Perigee altitude962.273 km
Semi-major axis7,345.178 km
Eccentricity0.0006491
Inclination100.126°
RAAN197.3556°
Arg. of periapsis230.3254°
True anomaly129.78937°
Mean anomaly129.7322°
Eccentric anomaly129.76079°
Mean motion3.44778 °/min
BSTAR0.0021183
Orbital period104.41 mins
Loading maneuver chart data...

THORAD AGENA D DEB Visibility forecast

Observer location: undefined°, undefined

Span
Click to sort rows by Start time (UTC) header in descending order
Start Az.
Max El. time (UTC)
Max El. Az.
Max El.
End time (UTC)
End Az.
7 mins2024-12-02 13:27:40.546Z97.578° ESE2024-12-02 13:31:40.546Z55.266° ENE17.228°2024-12-02 13:34:40.546Z23.089° NE
11 mins2024-12-02 15:08:40.546Z171.001° S2024-12-02 15:13:40.546Z250.26° W44.01°2024-12-02 15:19:40.546Z341.138° N
10 mins2024-12-03 03:49:40.546Z23.413° NE2024-12-03 03:54:40.546Z115.536° SE42.429°2024-12-03 03:59:40.546Z184.512° SSW
6 mins2024-12-03 05:34:40.546Z327.607° NNW2024-12-03 05:36:40.546Z303.233° NW18.974°2024-12-03 05:40:40.546Z259.025° W
|